SCP
-0 -0 0 -0 0 0 0 0 0 0 0 0 0 0 0 0 0 0 0 0 0 0 0 0 0 0 0 0 0 0 0 0
-0 -0 0 0 0 0 0 0 0 0 0 0 0 0 0 0 0 0 0 0 0 0 0 0 0 0 0 0 0 0 0 0
-0 -0 0 0 0 0 0 0 0 0 0 0 0 0 0 0 0 0 0 0 0 0 0 0 0 0 0 0 0 0 0 0
0 0 0 0 0 0 0 0 0 0 0 0 0 0 0 0 0 0 0 0 0 0 0 0 0 0 0 0 0 0 0 0
0 0 0 0 0 0 0 0 0 0 0 0 0 0 0 0 0 0 0 0 0 0 0 0 0 0 0 0 0 0 0 0
0 0 0 0 0 0 0 0 0 0 0 0 0 0 0 0 0 0 0 0 0 0 0 0 0 0 0 0 0 0 0 0
0 -0 0 0 0 0 0 0 0 0 0 0 0 0 0 0 0 0 0 0 0 0 0 0 0 0 0 0 0 0 0 0
0 0 0 0 0 0 0 0 0 0 0 0 0 0 0 0 0 0 0 0 0 0 0 0 0 0 0 0 0 0 0 0
0 0 0 0 0 0 0 0 0 0 0 0 0 0 0 0 0 0 0 0 0 0 0 0 0 0 0 0 0 0 0 0
-0 0 0 0 0 0 0 0 0 0 0 0 0 0 0 0 0 0 0 0 0 0 0 0 0 0 0 0 0 0 0 0
-0 0 0 0 0 0 0 0 0 0 0 0 0 0 0 0 0 0 0 0 0 0 0 0 0 0 0 0 0 0 0 0
-0 0 0 0 -0 0 0 0 0 0 0 0 0 0 0 0 0 0 0 0 0 0 0 0 0 0 0 0 0 0 0 0
-0 -0 0 0 -0 0 0 0 0 0 0 0 0 0 0 0 0 0 0 0 0 0 0 0 0 0 0 0 0 0 0 0
-0 0 0 0 0 0 0 0 0 0 0 0 0 0 0 0 0 0 0 0 0 0 0 0 0 0 0 -0 -0 0 0 0
-0 -0 -0 -0 0 0 0 0 0 0 0 0 0 0 0 0 0 0 0 0 0 0 0 0 0 0 0 0 0 0 0 0
-0 -0 -0 0 -0 0 0 0 0 0 0 0 0 0 0 0 0 0 0 0 0 0 0 0 0 0 0 0 0 0 0 0
-0 -0 -0 -0 0 0 0 0 0 0 0 0 0 0 0 0 0 0 0 0 0 0 0 0 0 0 0 0 0 0 0 0
0 0 0 0 0 -0 0 0 0 0 0 0 0 0 0 0 0 0 0 0 0 0 0 0 0 0 0 0 0 0 0 0
-0 -0 0 0 0 0 0 0 0 0 0 0 0 0 0 0 0 0 0 0 0 0 0 0 0 0 0 0 0 -0 -0 -0
0 0 0 0 0 0 0 0 0 0 0 0 0 0 0 0 0 0 0 0 0 0 0 0 0 0 0 -0 -0 -0 -0 -0
Wind_Speed_500mb
44 40 34 37 38 34 31 26 20 13 8 5 9 13 20 25 24 23 26 29 31 33 35 37 39 40 40 40 41 44 45 45
49 42 41 40 39 32 27 24 21 17 15 13 12 18 23 22 22 23 26 29 34 38 41 43 43 42 41 42 43 44 43 43
44 45 41 37 35 32 31 29 26 23 16 14 17 22 19 19 22 27 32 37 41 44 46 46 44 41 39 37 37 39 40 40
42 44 42 39 35 30 29 26 25 18 15 20 23 17 16 19 24 29 35 40 43 44 42 37 33 33 34 34 34 35 37 40
28 35 41 39 36 31 25 19 22 22 24 18 17 14 16 19 23 30 36 42 43 40 36 36 38 39 36 36 29 32 33 31
51 44 38 40 32 24 24 25 27 27 21 18 13 12 14 18 24 33 39 40 35 32 32 37 38 37 36 36 34 33 23 29
51 48 52 56 40 33 29 27 25 23 20 16 9 11 15 22 29 34 35 28 25 27 31 35 34 33 32 30 32 35 22 27
54 54 42 42 36 34 30 26 20 18 15 9 8 13 19 25 30 30 21 20 22 25 27 31 32 34 33 21 28 32 32 39
56 49 33 46 45 34 27 21 21 19 13 9 12 17 20 24 22 15 16 19 21 22 24 27 34 38 32 22 26 30 14 13
62 52 50 49 38 31 27 27 23 19 14 13 14 16 16 13 9 12 16 19 21 22 24 27 32 33 31 28 27 25 33 6
64 58 57 50 43 33 30 29 26 20 16 13 12 12 8 5 9 13 15 18 19 19 22 25 28 32 35 31 30 28 25 32
60 58 57 48 38 36 34 33 27 22 15 9 9 6 1 7 12 13 17 18 18 21 22 24 28 32 36 35 33 30 25 25
67 67 56 45 45 40 38 35 30 22 12 7 5 2 6 11 14 16 16 18 21 24 26 26 29 31 36 33 34 35 32 28
66 57 54 49 48 43 43 38 31 21 11 5 2 4 9 14 16 15 15 17 21 19 19 18 19 20 22 29 30 33 31 31
65 65 66 59 54 52 48 40 32 22 13 7 5 8 11 13 14 13 12 11 13 13 20 17 17 19 9 19 24 22 20 25
68 69 69 64 60 56 50 43 36 24 16 10 10 12 11 14 14 11 12 10 8 7 10 15 14 15 10 14 21 23 19 20
71 70 74 67 64 58 51 46 38 28 19 14 14 13 11 13 14 14 12 9 7 6 5 9 16 14 5 7 17 25 16 16
62 67 69 67 62 55 50 44 37 30 22 17 17 13 11 12 14 11 9 8 6 2 5 13 14 13 1 2 11 16 18 14
62 63 63 68 63 59 51 48 44 35 25 21 20 15 13 18 19 17 16 14 8 3 6 10 14 11 4 5 6 9 13 13
54 58 62 69 68 62 56 54 47 35 26 24 22 18 18 21 19 15 12 9 10 9 2 7 12 10 8 8 3 4 10 16
Wind_Direction_500mb
182 177 177 178 181 182 184 188 191 195 215 254 286 300 322 328 334 340 340 341 337 333 328 323 319 316 310 302 296 293 290 288
190 188 186 186 190 194 197 203 210 218 227 247 269 312 318 324 334 339 342 341 338 335 333 330 326 321 317 313 310 306 300 294
191 199 197 196 198 202 208 214 220 221 223 254 296 295 310 325 333 341 343 343 342 340 336 334 331 330 327 325 323 319 316 308
193 198 203 203 208 209 209 206 206 231 257 276 284 292 312 324 333 337 342 342 341 341 344 349 353 354 353 352 346 341 338 330
191 202 216 217 216 220 219 224 233 249 256 264 269 289 308 321 331 337 341 341 346 354 3 10 12 13 15 12 7 355 352 355
202 209 233 247 227 224 223 232 239 246 248 250 261 287 306 325 338 342 342 345 355 11 23 24 26 22 15 12 6 7 26 29
196 229 238 232 240 239 230 230 236 237 233 235 258 303 327 335 337 336 339 352 12 29 32 30 28 20 15 15 19 15 54 59
203 207 218 223 219 217 215 223 217 216 221 243 299 318 321 324 326 333 353 20 36 41 37 29 27 18 14 26 27 35 74 75
200 203 231 215 215 212 212 214 217 215 226 255 283 302 309 317 327 2 34 49 50 46 40 29 24 19 33 49 39 42 112 92
199 201 212 208 211 212 210 214 211 215 229 259 282 290 305 324 15 51 61 61 58 53 41 32 30 44 51 53 42 41 48 103
195 202 202 201 203 202 212 212 212 215 232 259 278 296 324 41 84 90 77 62 51 47 46 42 39 49 48 48 46 45 46 47
199 197 195 200 200 209 201 203 207 215 229 255 288 296 255 140 118 102 82 58 57 65 59 60 58 54 47 43 39 44 49 52
200 198 197 198 206 206 197 199 206 213 226 261 301 255 157 140 127 109 89 59 83 74 76 72 63 54 45 45 42 41 49 53
204 198 194 198 204 200 197 198 205 211 224 256 227 154 157 144 136 121 105 83 86 81 66 66 54 45 41 43 41 46 51 49
193 195 192 199 201 199 197 199 205 208 218 219 175 158 149 150 145 133 121 110 93 80 56 57 52 30 43 39 29 27 39 42
196 195 195 200 202 199 198 200 202 205 211 202 169 158 164 166 164 161 148 138 108 79 56 40 28 25 35 23 19 19 27 38
194 191 198 199 199 200 198 199 198 202 206 194 177 181 173 177 174 168 161 148 119 77 41 14 354 354 351 10 14 17 19 36
192 193 195 197 199 198 196 198 199 199 199 187 188 178 177 181 174 167 176 197 201 134 14 340 349 355 41 5 24 29 58 62
191 192 193 195 196 197 193 196 195 195 195 190 187 176 178 168 159 142 117 101 110 201 318 353 356 9 106 123 55 35 42 29
187 188 188 191 195 194 195 195 194 193 193 188 184 183 187 185 176 173 157 128 92 77 52 14 6 38 111 116 78 347 354 348
Wind_Speed_850mb
44 40 34 37 38 34 31 26 20 13 8 5 9 13 20 25 24 23 26 29 31 33 35 37 39 40 40 40 41 44 45 45
49 42 41 40 39 32 27 24 21 17 15 13 12 18 23 22 22 23 26 29 34 38 41 43 43 42 41 42 43 44 43 43
44 45 41 37 35 32 31 29 26 23 16 14 17 22 19 19 22 27 32 37 41 44 46 46 44 41 39 37 37 39 40 40
42 44 42 39 35 30 29 26 25 18 15 20 23 17 16 19 24 29 35 40 43 44 42 37 33 33 34 34 34 35 37 40
28 35 41 39 36 31 25 19 22 22 24 18 17 14 16 19 23 30 36 42 43 40 36 36 38 39 36 36 29 32 33 31
51 44 38 40 32 24 24 25 27 27 21 18 13 12 14 18 24 33 39 40 35 32 32 37 38 37 36 36 34 33 23 29
51 48 52 56 40 33 29 27 25 23 20 16 9 11 15 22 29 34 35 28 25 27 31 35 34 33 32 30 32 35 22 27
54 54 42 42 36 34 30 26 20 18 15 9 8 13 19 25 30 30 21 20 22 25 27 31 32 34 33 21 28 32 32 39
56 49 33 46 45 34 27 21 21 19 13 9 12 17 20 24 22 15 16 19 21 22 24 27 34 38 32 22 26 30 14 13
62 52 50 49 38 31 27 27 23 19 14 13 14 16 16 13 9 12 16 19 21 22 24 27 32 33 31 28 27 25 33 6
64 58 57 50 43 33 30 29 26 20 16 13 12 12 8 5 9 13 15 18 19 19 22 25 28 32 35 31 30 28 25 32
60 58 57 48 38 36 34 33 27 22 15 9 9 6 1 7 12 13 17 18 18 21 22 24 28 32 36 35 33 30 25 25
67 67 56 45 45 40 38 35 30 22 12 7 5 2 6 11 14 16 16 18 21 24 26 26 29 31 36 33 34 35 32 28
66 57 54 49 48 43 43 38 31 21 11 5 2 4 9 14 16 15 15 17 21 19 19 18 19 20 22 29 30 33 31 31
65 65 66 59 54 52 48 40 32 22 13 7 5 8 11 13 14 13 12 11 13 13 20 17 17 19 9 19 24 22 20 25
68 69 69 64 60 56 50 43 36 24 16 10 10 12 11 14 14 11 12 10 8 7 10 15 14 15 10 14 21 23 19 20
71 70 74 67 64 58 51 46 38 28 19 14 14 13 11 13 14 14 12 9 7 6 5 9 16 14 5 7 17 25 16 16
62 67 69 67 62 55 50 44 37 30 22 17 17 13 11 12 14 11 9 8 6 2 5 13 14 13 1 2 11 16 18 14
62 63 63 68 63 59 51 48 44 35 25 21 20 15 13 18 19 17 16 14 8 3 6 10 14 11 4 5 6 9 13 13
54 58 62 69 68 62 56 54 47 35 26 24 22 18 18 21 19 15 12 9 10 9 2 7 12 10 8 8 3 4 10 16
Wind_Direction_850mb
182 177 177 178 181 182 184 188 191 195 215 254 286 300 322 328 334 340 340 341 337 333 328 323 319 316 310 302 296 293 290 288
190 188 186 186 190 194 197 203 210 218 227 247 269 312 318 324 334 339 342 341 338 335 333 330 326 321 317 313 310 306 300 294
191 199 197 196 198 202 208 214 220 221 223 254 296 295 310 325 333 341 343 343 342 340 336 334 331 330 327 325 323 319 316 308
193 198 203 203 208 209 209 206 206 231 257 276 284 292 312 324 333 337 342 342 341 341 344 349 353 354 353 352 346 341 338 330
191 202 216 217 216 220 219 224 233 249 256 264 269 289 308 321 331 337 341 341 346 354 3 10 12 13 15 12 7 355 352 355
202 209 233 247 227 224 223 232 239 246 248 250 261 287 306 325 338 342 342 345 355 11 23 24 26 22 15 12 6 7 26 29
196 229 238 232 240 239 230 230 236 237 233 235 258 303 327 335 337 336 339 352 12 29 32 30 28 20 15 15 19 15 54 59
203 207 218 223 219 217 215 223 217 216 221 243 299 318 321 324 326 333 353 20 36 41 37 29 27 18 14 26 27 35 74 75
200 203 231 215 215 212 212 214 217 215 226 255 283 302 309 317 327 2 34 49 50 46 40 29 24 19 33 49 39 42 112 92
199 201 212 208 211 212 210 214 211 215 229 259 282 290 305 324 15 51 61 61 58 53 41 32 30 44 51 53 42 41 48 103
195 202 202 201 203 202 212 212 212 215 232 259 278 296 324 41 84 90 77 62 51 47 46 42 39 49 48 48 46 45 46 47
199 197 195 200 200 209 201 203 207 215 229 255 288 296 255 140 118 102 82 58 57 65 59 60 58 54 47 43 39 44 49 52
200 198 197 198 206 206 197 199 206 213 226 261 301 255 157 140 127 109 89 59 83 74 76 72 63 54 45 45 42 41 49 53
204 198 194 198 204 200 197 198 205 211 224 256 227 154 157 144 136 121 105 83 86 81 66 66 54 45 41 43 41 46 51 49
193 195 192 199 201 199 197 199 205 208 218 219 175 158 149 150 145 133 121 110 93 80 56 57 52 30 43 39 29 27 39 42
196 195 195 200 202 199 198 200 202 205 211 202 169 158 164 166 164 161 148 138 108 79 56 40 28 25 35 23 19 19 27 38
194 191 198 199 199 200 198 199 198 202 206 194 177 181 173 177 174 168 161 148 119 77 41 14 354 354 351 10 14 17 19 36
192 193 195 197 199 198 196 198 199 199 199 187 188 178 177 181 174 167 176 197 201 134 14 340 349 355 41 5 24 29 58 62
191 192 193 195 196 197 193 196 195 195 195 190 187 176 178 168 159 142 117 101 110 201 318 353 356 9 106 123 55 35 42 29
187 188 188 191 195 194 195 195 194 193 193 188 184 183 187 185 176 173 157 128 92 77 52 14 6 38 111 116 78 347 354 348